Volver al catálogo

RASSVET-2 NO. 1

ActivoComunicacionesSSO
NORAD 59779·PAYLOAD·🇷🇺 Russia
Este nombre de satélite aún no ha sido confirmado por fuentes oficiales.

Lanzado May 16, 2024 desde Plesetsk Cosmodrome

Loading…

Próximos Pases (próximas 24 horas)

TLE

ActualizadoSource: Space-Track

Época: Sep 14, 2026, 14:24 UTC

1 59779U 24092G   26257.60029938  .00000100  00000-0  54187-4 0  9993
2 59779  98.6797  16.5887 0010983 308.8453  51.1750 14.31871210121698

Sigue RASSVET-2 NO. 1 en tiempo real con AllMySat

Download on the App Store